Regional Weather Roundup
Issued by NWS

Home | Current Version | Previous Version | Graphics & Text | Print | Product List | Glossary On
Versions: 1 2 3 4 5 6 7 8 9 10 11 12 13 14 15 16 17 18 19 20 21 22 23 24 25 26 27 28 29 30 31 32 33 34 35 36 37 38 39 40 41 42 43 44 45 46 47 48 49 50
000
ASUS43 KBIS 241520
RWRND

NORTH DAKOTA REGIONAL WEATHER ROUNDUP
NATIONAL WEATHER SERVICE BISMARCK ND
1000 AM CDT THU APR 24 2014

NOTE: "FAIR" INDICATES FEW OR NO CLOUDS BELOW 12,000 FEET WITH NO
SIGNIFICANT WEATHER AND/OR OBSTRUCTIONS TO VISIBILITY.


NDZ001>003-009>011-017-241600-
NORTHWEST NORTH DAKOTA

CITY           SKY/WX    TMP DP  RH WIND       PRES   REMARKS
WILLISTON      SUNNY     47  31  53 W10       29.73R
MINOT          SUNNY     49  32  52 W17       29.67R
MINOT AFB      SUNNY     47  35  63 NW14      29.67S
$$

NDZ018>021-031>035-040>046-241600-
SOUTHWEST NORTH DAKOTA

CITY           SKY/WX    TMP DP  RH WIND       PRES   REMARKS
BISMARCK       SUNNY     51  29  42 W14       29.75F
DICKINSON      SUNNY     51  25  36 W22       29.75R
GARRISON         N/A     47  35  63 W15       29.71S
HETTINGER ARPT PTSUNNY   51  28  41 W18       29.80F
$$

NDZ004>008-012>016-024-026-027-054-241600-
NORTHEAST NORTH DAKOTA

CITY           SKY/WX    TMP DP  RH WIND       PRES   REMARKS
GRAND FORKS    LGT RAIN  41  39  93 SE12      29.76S
GRND FRKS AFB  MIX PCPN  42  42 100 SE10      29.75F
DEVILS LAKE    CLOUDY    39  36  87 S9        29.71S
$$

NDZ022-023-025-028>030-036>039-047>053-241600-
SOUTHEAST NORTH DAKOTA

CITY           SKY/WX    TMP DP  RH WIND       PRES   REMARKS
FARGO          LGT RAIN  42  40  92 SE6       29.76S FOG
JAMESTOWN      CLOUDY    41  41 100 SE3       29.71S FOG
$$




USA.gov is the U.S. government's official web portal to all federal, state and local government web resources and services.